Regional Weather Roundup
Issued by NWS

Home | Current Version | Previous Version | Graphics & Text | Print | Product List | Glossary On
Versions: 1 2 3 4 5 6 7 8 9 10 11 12 13 14 15 16 17 18 19 20 21 22 23 24 25 26 27 28 29 30 31 32 33 34 35 36 37 38 39 40 41 42 43 44 45 46 47 48 49 50
000
ASUS43 KLOT 250512
RWRIL

ILLINOIS REGIONAL WEATHER ROUNDUP
NATIONAL WEATHER SERVICE CHICAGO/ROMEOVILLE IL
1100 PM CST FRI FEB 24 2017

NOTE: "FAIR" INDICATES FEW OR NO CLOUDS BELOW 12,000 FEET WITH NO
SIGNIFICANT WEATHER AND/OR OBSTRUCTIONS TO VISIBILITY.

* THESE STATIONS ARE NOT UNDER NWS QUALITY CONTROL. THEY ALSO MAY NOT
  REPORT WEATHER SUCH AS PRECIPITATION OR FOG.

ILZ001-002-007-009-015-016-024-250600-
NORTHWEST ILLINOIS

CITY           SKY/WX    TMP DP  RH WIND       PRES   REMARKS
MOLINE         LGT SNOW  31  26  82 NW16G24   29.71R WCI  20
STERLING*      FLURRIES  30  28  92 NW12      29.68R WCI  20
$$

ILZ003-004-008-010-011-017-018-250600-
NORTH CENTRAL ILLINOIS

CITY           SKY/WX    TMP DP  RH WIND       PRES   REMARKS
ROCKFORD       LGT SNOW  29  25  85 NW10      29.65R FOG     WCI  20
FREEPORT*      LGT SNOW  28  26  93 NW9       29.66F WCI  19
ROCHELLE*      FLURRIES  30  28  92 NW9       29.64S WCI  21
DE KALB*       LGT SNOW  30  28  94 NW10      29.62S WCI  21
PERU*          CLOUDY    31  29  90 NW10      29.67R WCI  23
$$

ILZ005-006-012>014-019>023-250600-
NORTHEAST ILLINOIS

CITY           SKY/WX    TMP DP  RH WIND       PRES   REMARKS
CHICAGO-OHARE  CLOUDY    34  30  85 NW13      29.59R WCI  25
CHICAGO-MIDWAY CLOUDY    34  30  85 W9        29.60R WCI  27
AURORA         CLOUDY    32  29  88 NW15      29.62R WCI  22
LANSING*       CLOUDY    38  36  92 W8        29.60R WCI  32
JOLIET*        CLOUDY    34  32  90 NW7       29.63R FOG     WCI  28
WAUKEGAN       CLOUDY    30  28  92 NW6       29.58S WCI  24
DUPAGE AIRPORT CLOUDY    31  27  85 W8        29.61R WCI  23
KANKAKEE*      CLOUDY    39  33  78 W17       29.63R WCI  30
WHEELING       CLOUDY    32  28  85 NW10      29.59F WCI  24
MORRIS*        LGT SNOW  32  30  93 NW13      29.63R WCI  22
ROMEOVILLE*    CLOUDY    33  32  98 NW12      29.62R WCI  24
NORTHERLY ISL    N/A     35  31  85 W7          N/A  WCI  29
$$

LMZ740>746-250600-
SOUTHERN LAKE MICHIGAN

STATION/POSITION SKY/WX   TEMP    WIND        PRES    VSBY  WAVE
                          AIR SEA DIR/SP/G                  HT/PER
                          (F)     (DEG/KT/KT) (MB)    (MI)  (FT/S)
HARRISON CRIB              35     330/ 13/ 14   N/A
BURNHAM HARBOR             35     230/  8/ 12   N/A
CALUMET HARBOR             37     240/  7/ 11 1001.8R
BURNS HARBOR               38     270/  7/  8 1002.7R
MICHIGAN CITY              35        CALM       N/A
$$

ILZ025>027-034>036-040-047-049-050-058-095>099-250600-
WEST-CENTRAL ILLINOIS

CITY           SKY/WX    TMP DP  RH WIND       PRES   REMARKS
QUINCY         CLOUDY    29  24  82 NW22G32   29.82R WCI  15
GALESBURG*     LGT SNOW  31  31  99 W13       29.71R WCI  21
MACOMB*        LGT SNOW  31  30  96 W18       29.77R WCI  19
JACKSONVILLE*  MIX PCPN  32  30  92 W16G28    29.77S WCI  21
PITTSFIELD*    CLOUDY    32  28  86 W22G31    29.82R WCI  19
$$

ILZ028>032-037-038-041>044-048-051>054-059>061-250600-
CENTRAL ILLINOIS

CITY           SKY/WX    TMP DP  RH WIND       PRES   REMARKS
PONTIAC        CLOUDY    38  35  87 W20G25    29.65R WCI  28
BLOOMINGTON    CLOUDY    37  32  82 W15       29.66S WCI  28
DECATUR        CLOUDY    38  31  76 W21G30    29.71R WCI  28
PEORIA         FLURRIES  35  31  85 W14       29.69S WCI  26
LACON*         LGT RAIN  32  32  99 NW9       29.67S WCI  24
LINCOLN*       LGT RAIN  37  35  94 W10G18    29.70S WCI  29
SPRINGFIELD    LGT SNOW  34  31  88 W25G33    29.74R FOG     WCI  21
TAYLORVILLE    CLOUDY    36  29  76 W17G25    29.75S WCI  26
$$

ILZ033-039-045-046-055>057-062-063-250600-
EAST-CENTRAL ILLINOIS

CITY           SKY/WX    TMP DP  RH WIND       PRES   REMARKS
CHAMPAIGN      CLOUDY    41  32  70 W18G28    29.68S
RANTOUL*       CLOUDY    41  37  86 W16G23    29.66S
MATTOON        CLOUDY    40  32  73 W16G33    29.71R
PARIS*         MOCLDY    40  35  80 W23G29    29.69S
$$

ILZ079-100>102-250600-
SOUTHWEST ILLINOIS

CITY           SKY/WX    TMP DP  RH WIND       PRES   REMARKS
ALTON          CLOUDY    34  23  63 W24G33    29.82R WCI  22
BELLEVILLE     CLOUDY    40  26  57 W12G31    29.80R
CAHOKIA*       CLOUDY    38  23  55 NW23G29   29.83R WCI  27
SPARTA*        CLOUDY    43  28  56 W15G26    29.81R
$$

ILZ064>066-069>071-074>076-080>082-084>086-088>090-092>094-250600-
SOUTH-CENTRAL ILLINOIS

CITY           SKY/WX    TMP DP  RH WIND       PRES   REMARKS
CARBONDALE     MOCLDY    44  27  51 W9G23     29.80R
CAIRO*         PTCLDY    48  33  56 W14       29.80R
EFFINGHAM*     CLOUDY    42  35  74 W18G28    29.75R
MARION         CLEAR     45  34  65 W8        29.79R
MT. VERNON     PTCLDY    44  30  57 W14G22    29.77R
CENTRALIA*     CLOUDY    42  32  68 W21G30    29.77R
SALEM*         CLOUDY    44  33  64 W18G26    29.76R
METROPOLIS*    MOCLDY    50  32  49 W7        29.79R
$$

ILZ067-068-072-073-078-083-087-091-250600-
SOUTHEAST ILLINOIS

CITY           SKY/WX    TMP DP  RH WIND       PRES   REMARKS
LAWRENCEVILLE  CLEAR     44  33  65 W12G22    29.73S
FLORA*         CLEAR     45  30  56 W14G22    29.74S
FAIRFIELD*     CLEAR     44  32  62 W5        29.75R
HARRISBURG*    PTCLDY    45  35  67 W13G18    29.78R
ROBINSON*      CLEAR     42  34  73 W15       29.72F
CARMI*         PTCLDY    44  35  71 W12       29.76R
$$

ABBREVIATIONS USED IN REMARKS
   TC - TEMPERATURE IN CELSIUS
  WCI - WIND CHILL INDEX
   HX - HEAT INDEX
  VSB - VISIBILITY
$$




USA.gov is the U.S. government's official web portal to all federal, state and local government web resources and services.